Location: Unspecified
(27.3490°N, 0.0000°E)
Time: 10:32:30
(UTC+00:00)

GEOS 3 - Visible Passes

Search period start: 04 April 2026 00:00
Search period end: 14 April 2026 00:00
Orbit: 815 x 842 km, 115.0° (Epoch: 28 March)

Date Brightness Start Highest point End Pass type
(mag) Time Alt. Az. Time Alt. Az. Time Alt. Az.
4 Apr 8.3 03:43:46 10° E 03:45:46 12° ESE 03:47:47 10° SE visible
4 Apr 5.7 05:19:02 10° NNE 05:24:23 75° WNW 05:29:42 10° SW visible
5 Apr 6.2 05:00:32 10° NE 05:05:51 64° ESE 05:11:07 10° SSW visible
6 Apr 7.2 04:42:22 10° NE 04:47:15 36° ESE 04:52:06 10° S visible
7 Apr 8.0 04:24:43 10° ENE 04:28:37 20° ESE 04:32:29 10° SSE visible
8 Apr 8.5 04:08:42 10° E 04:09:56 11° ESE 04:11:10 10° SE visible
10 Apr 7.4 05:06:39 10° NE 05:11:26 33° ESE 05:16:10 10° S visible
11 Apr 8.2 04:49:08 10° ENE 04:52:47 19° ESE 04:56:25 10° SSE visible
